JST651 YSCB-YSSY

Flight info

Callsign JST651
Flight time N/A
Altitude 35000
Route AVBEG3/35 AVBEG W184 MUDGI/N0452F350 SADLO BOREE
Aircraft A320/M-SDE3FGHIRWY/LB1

Departure

Time N/A
Airport Canberra Airport (YSCB)

Arrival

Time 2026-05-06 10:45
Airport Sydney Kingsford Smith International Airport (YSSY)
Time Latitude Longitude Altitude Speed Heading
2026-05-06 10:16 -32.49953 149.64593 29009 ft 456 kts 38°
2026-05-06 10:16 -32.47727 149.67255 29009 ft 457 kts 54°
2026-05-06 10:16 -32.46174 149.70524 29009 ft 457 kts 69°
2026-05-06 10:17 -32.45418 149.74163 29009 ft 456 kts 85°
2026-05-06 10:17 -32.45514 149.77905 29009 ft 456 kts 101°
2026-05-06 10:17 -32.47401 149.85062 29009 ft 456 kts 109°
2026-05-06 10:18 -32.49450 149.92181 29009 ft 456 kts 109°
2026-05-06 10:18 -32.51476 149.99317 29009 ft 457 kts 109°
2026-05-06 10:19 -32.53510 150.06459 29009 ft 457 kts 109°
2026-05-06 10:19 -32.55531 150.13546 29010 ft 459 kts 109°
2026-05-06 10:20 -32.57590 150.20753 29009 ft 464 kts 109°
2026-05-06 10:20 -32.59658 150.28030 29010 ft 468 kts 109°
2026-05-06 10:21 -32.61743 150.35394 29010 ft 471 kts 109°
2026-05-06 10:21 -32.63829 150.42786 29009 ft 475 kts 109°
2026-05-06 10:22 -32.65930 150.50242 29009 ft 478 kts 109°
2026-05-06 10:22 -32.68047 150.57762 29010 ft 481 kts 109°
2026-05-06 10:23 -32.70164 150.65320 28792 ft 488 kts 109°
2026-05-06 10:23 -32.71245 150.69188 28346 ft 494 kts 108°
2026-05-06 10:23 -32.72322 150.73047 27668 ft 491 kts 108°
2026-05-06 10:24 -32.73379 150.76839 27036 ft 487 kts 108°
2026-05-06 10:24 -32.74435 150.80631 26402 ft 481 kts 108°
2026-05-06 10:24 -32.75481 150.84383 25790 ft 476 kts 109°
2026-05-06 10:24 -32.76524 150.88097 25184 ft 470 kts 110°
2026-05-06 10:25 -32.77962 150.91551 24602 ft 464 kts 124°
2026-05-06 10:25 -32.80080 150.94399 24043 ft 458 kts 140°
2026-05-06 10:25 -32.82718 150.96441 23499 ft 452 kts 155°
2026-05-06 10:25 -32.85692 150.97585 22967 ft 447 kts 170°
2026-05-06 10:26 -32.88763 150.98154 22436 ft 444 kts 172°
2026-05-06 10:26 -32.91804 150.98697 21894 ft 440 kts 172°
2026-05-06 10:26 -32.94818 150.99231 21359 ft 436 kts 172°
2026-05-06 10:26 -32.96804 150.99583 20988 ft 433 kts 172°
2026-05-06 10:27 -32.99771 151.00111 20438 ft 428 kts 172°
2026-05-06 10:27 -33.02705 151.00634 19869 ft 424 kts 172°
2026-05-06 10:27 -33.06545 151.01322 19114 ft 419 kts 172°
2026-05-06 10:27 -33.09411 151.01837 18539 ft 414 kts 172°
2026-05-06 10:28 -33.11330 151.02182 18150 ft 411 kts 172°
2026-05-06 10:28 -33.14141 151.02688 17574 ft 407 kts 172°
2026-05-06 10:28 -33.16901 151.03182 17008 ft 403 kts 172°
2026-05-06 10:28 -33.19662 151.03677 16439 ft 399 kts 172°
2026-05-06 10:29 -33.22381 151.04162 15872 ft 395 kts 172°
2026-05-06 10:29 -33.25094 151.04648 15308 ft 391 kts 172°
2026-05-06 10:29 -33.27761 151.05143 14758 ft 387 kts 171°
2026-05-06 10:29 -33.30411 151.05650 14212 ft 383 kts 171°
2026-05-06 10:30 -33.33024 151.06158 13669 ft 379 kts 171°
2026-05-06 10:30 -33.35616 151.06666 13129 ft 376 kts 171°
2026-05-06 10:30 -33.38189 151.07169 12592 ft 372 kts 171°
2026-05-06 10:30 -33.40735 151.07661 12061 ft 369 kts 171°
2026-05-06 10:31 -33.43254 151.08143 11534 ft 365 kts 171°
2026-05-06 10:31 -33.45744 151.08619 11016 ft 362 kts 171°
2026-05-06 10:31 -33.48219 151.09094 10500 ft 359 kts 171°
2026-05-06 10:31 -33.50677 151.09567 10311 ft 356 kts 171°
2026-05-06 10:32 -33.53129 151.10039 10204 ft 357 kts 171°
2026-05-06 10:32 -33.55583 151.10511 10049 ft 356 kts 171°
2026-05-06 10:32 -33.58033 151.10980 9683 ft 357 kts 171°
2026-05-06 10:32 -33.60471 151.11450 9166 ft 352 kts 171°
2026-05-06 10:33 -33.62864 151.11916 8762 ft 346 kts 171°
2026-05-06 10:33 -33.65246 151.12386 8591 ft 347 kts 171°
2026-05-06 10:33 -33.67630 151.12858 8386 ft 346 kts 171°
2026-05-06 10:33 -33.70002 151.13329 8180 ft 345 kts 171°
2026-05-06 10:34 -33.72365 151.13794 7974 ft 344 kts 171°
2026-05-06 10:34 -33.74728 151.14251 7771 ft 343 kts 171°
2026-05-06 10:34 -33.77074 151.14703 7568 ft 342 kts 171°
2026-05-06 10:34 -33.79419 151.15155 7365 ft 340 kts 172°
2026-05-06 10:35 -33.81725 151.15240 7195 ft 325 kts 187°
2026-05-06 10:35 -33.83891 151.14681 7069 ft 311 kts 194°
2026-05-06 10:35 -33.85931 151.14095 6945 ft 300 kts 194°
2026-05-06 10:35 -33.87922 151.13524 6819 ft 289 kts 194°
2026-05-06 10:36 -33.89846 151.12972 6643 ft 281 kts 194°
2026-05-06 10:36 -33.91741 151.12429 6346 ft 278 kts 193°
2026-05-06 10:36 -33.93615 151.11893 6145 ft 273 kts 193°
2026-05-06 10:36 -33.95434 151.11372 6019 ft 264 kts 194°
2026-05-06 10:37 -33.97195 151.10866 5893 ft 256 kts 194°
2026-05-06 10:37 -33.98898 151.10374 5767 ft 248 kts 194°
2026-05-06 10:37 -34.00555 151.09893 5530 ft 244 kts 194°
2026-05-06 10:37 -34.02196 151.09416 5307 ft 241 kts 194°
2026-05-06 10:38 -34.03796 151.08949 5142 ft 234 kts 194°
2026-05-06 10:38 -34.05374 151.08493 4859 ft 232 kts 194°
2026-05-06 10:38 -34.06943 151.08056 4558 ft 231 kts 189°
2026-05-06 10:38 -34.08545 151.07951 4257 ft 231 kts 176°
2026-05-06 10:39 -34.10123 151.08273 3957 ft 230 kts 168°
2026-05-06 10:39 -34.11612 151.08936 3701 ft 227 kts 144°
2026-05-06 10:39 -34.12568 151.10397 3500 ft 222 kts 110°
2026-05-06 10:39 -34.12738 151.12216 3300 ft 218 kts 86°
2026-05-06 10:40 -34.12596 151.14028 3102 ft 215 kts 83°
2026-05-06 10:40 -34.12417 151.15785 2977 ft 206 kts 83°
2026-05-06 10:40 -34.12242 151.17447 2928 ft 198 kts 83°
2026-05-06 10:40 -34.11961 151.19053 2930 ft 196 kts 62°
2026-05-06 10:41 -34.11028 151.20208 2868 ft 195 kts 25°
2026-05-06 10:41 -34.09760 151.20762 2640 ft 193 kts 15°
2026-05-06 10:41 -34.08473 151.20986 2508 ft 181 kts 357°
2026-05-06 10:41 -34.07235 151.20859 2286 ft 176 kts 352°
2026-05-06 10:42 -34.06045 151.20613 2065 ft 171 kts 347°
2026-05-06 10:42 -34.04889 151.20291 1872 ft 170 kts 345°
2026-05-06 10:42 -34.03748 151.19954 1623 ft 168 kts 346°
2026-05-06 10:42 -34.02637 151.19672 1383 ft 155 kts 347°
2026-05-06 10:43 -34.01613 151.19408 1125 ft 147 kts 346°
2026-05-06 10:43 -34.00629 151.19156 837 ft 143 kts 346°
2026-05-06 10:43 -33.99663 151.18904 642 ft 142 kts 347°
2026-05-06 10:44 -33.97739 151.18408 340 ft 141 kts 345°
2026-05-06 10:44 -33.96783 151.18158 174 ft 141 kts 346°
2026-05-06 10:44 -33.95834 151.17911 31 ft 130 kts 347°
2026-05-06 10:44 -33.95077 151.17713 27 ft 94 kts 348°
2026-05-06 10:45 -33.94600 151.17590 30 ft 45 kts 347°
2026-05-06 10:45 -33.94407 151.17540 30 ft 25 kts 348°
2026-05-06 10:45 -33.94211 151.17488 30 ft 33 kts 347°
2026-05-06 10:45 -33.93997 151.17433 26 ft 22 kts 348°
2026-05-06 10:46 -33.93911 151.17454 27 ft 12 kts 56°
2026-05-06 10:46 -33.93898 151.17528 28 ft 7 kts 73°
2026-05-06 10:46 -33.93896 151.17536 28 ft 0 kts 72°
2026-05-06 10:47 -33.93892 151.17554 29 ft 6 kts 73°
2026-05-06 10:47 -33.93845 151.17596 29 ft 13 kts 359°
2026-05-06 10:47 -33.93742 151.17570 29 ft 15 kts 348°
2026-05-06 10:48 -33.93642 151.17580 29 ft 12 kts 54°
2026-05-06 10:48 -33.93644 151.17678 30 ft 13 kts 99°
2026-05-06 10:48 -33.93659 151.17783 30 ft 10 kts 96°
2026-05-06 10:48 -33.93612 151.17820 30 ft 9 kts
2026-05-06 10:49 -33.93555 151.17831 30 ft 7 kts 10°
2026-05-06 10:49 -33.93529 151.17809 30 ft 5 kts 277°
2026-05-06 10:49 -33.93526 151.17775 30 ft 3 kts 281°
2026-05-06 10:49 -33.93524 151.17766 30 ft 0 kts 281°